Wendover, UT

5:28 AM MDT on May 27, 2017 (GMT -0600)
Wendover

Weather History for KENV - July, 2013

Change the Weather History Date:

Wednesday, July 3, 2013

  Actual Average Record
Temperature  
Mean Temperature 89 °F -  
Max Temperature 98 °F 88 °F 104 °F (1985)
Min Temperature 80 °F 64 °F 51 °F (1938)
Cooling Degree Days 24    
Growing Degree Days 39 (Base 50)    
Moisture  
Dew Point 44 °F    
Average Humidity 21    
Maximum Humidity 35    
Minimum Humidity 15    
Precipitation  
Precipitation 0.00 in - - ()
Sea Level Pressure  
Sea Level Pressure 30.03 in    
Wind  
Wind Speed 10 mph (NE)    
Max Wind Speed 25 mph    
Max Gust Speed 33 mph    
Visibility 10 miles    
Events Thunderstorm    
Averages and records for this station are not official NWS values.
T = Trace of Precipitation, MM = Missing Value Source: NWS Daily Summary

Daily Weather History Graph

Daily Weather History Graph

Search for Another Location

Airport or City:

Trip Planner

Search our weather history database for the weather conditions in past years. The results will help you decide how hot, cold, wet, or windy it might be!

Date:

Astronomy

Jul. 03, 2013 Rise Set
Actual Time 6:09 AM MDT 9:10 PM MDT
Civil Twilight 5:36 AM MDT 9:43 PM MDT
Nautical Twilight 4:54 AM MDT 10:25 PM MDT
Astronomical Twilight 4:05 AM MDT 11:15 PM MDT
Moon 2:51 AM MDT (7/3) 5:24 PM MDT (7/3)
Length of Visible Light 16h 07m
Length of Day
15h 00m
Waning Crescent, 18% of the Moon is Illuminated
Jul 3
Waning Crescent
Jul 8
New
Jul 15
First Quarter
Jul 22
Full
Jul 29
Last Quarter

Hourly Weather History & Observations

Time (MDT) Temp. Dew Point Humidity Pressure Visibility Wind Dir Wind Speed Gust Speed Precip Events Conditions
12:35 AM 89.6 °F 41.0 °F 18% 30.05 in 10.0 mi NNE 13.8 mph 17.3 mph N/A   Clear
12:55 AM 89.6 °F 41.0 °F 18% 30.05 in 10.0 mi North 15.0 mph - N/A   Clear
1:15 AM 89.6 °F 41.0 °F 18% 30.05 in 10.0 mi NNE 12.7 mph - N/A   Clear
1:35 AM 89.6 °F 41.0 °F 18% 30.04 in 10.0 mi NNE 11.5 mph - N/A   Clear
2:15 AM 87.8 °F 39.2 °F 18% 30.06 in 10.0 mi SSW 3.5 mph - N/A   Clear
2:35 AM 84.2 °F 39.2 °F 20% 30.06 in 10.0 mi East 5.8 mph - N/A   Clear
2:55 AM 84.2 °F 39.2 °F 20% 30.06 in 10.0 mi NE 9.2 mph - N/A   Clear
3:15 AM 84.2 °F 39.2 °F 20% 30.06 in 10.0 mi SW 3.5 mph - N/A   Clear
3:35 AM 84.2 °F 39.2 °F 20% 30.05 in 10.0 mi West 11.5 mph - N/A   Clear
3:55 AM 86.0 °F 39.2 °F 19% 30.05 in 10.0 mi WNW 6.9 mph - N/A   Clear
4:15 AM 82.4 °F 39.2 °F 21% 30.05 in 10.0 mi South 4.6 mph - N/A   Clear
4:35 AM 84.2 °F 39.2 °F 20% 30.05 in 10.0 mi NW 8.1 mph - N/A   Clear
4:55 AM 84.2 °F 39.2 °F 20% 30.05 in 10.0 mi North 4.6 mph - N/A   Clear
5:15 AM 84.2 °F 39.2 °F 20% 30.04 in 10.0 mi WNW 10.4 mph - N/A   Clear
5:35 AM 82.4 °F 39.2 °F 21% 30.05 in 10.0 mi ENE 3.5 mph - N/A   Clear
5:55 AM 80.6 °F 41.0 °F 24% 30.06 in 10.0 mi Calm Calm - N/A   Clear
6:15 AM 86.0 °F 41.0 °F 20% 30.06 in 10.0 mi North 5.8 mph - N/A   Clear
6:35 AM 84.2 °F 39.2 °F 20% 30.07 in 10.0 mi NNE 11.5 mph 17.3 mph N/A   Clear
6:55 AM 84.2 °F 39.2 °F 20% 30.08 in 10.0 mi NE 17.3 mph 26.5 mph N/A   Clear
7:15 AM 82.4 °F 42.8 °F 25% 30.08 in 10.0 mi North 20.7 mph 31.1 mph N/A   Clear
7:35 AM 82.4 °F 44.6 °F 26% 30.09 in 10.0 mi North 21.9 mph 29.9 mph N/A   Clear
7:55 AM 82.4 °F 44.6 °F 26% 30.11 in 10.0 mi North 20.7 mph 24.2 mph N/A   Clear
8:15 AM 82.4 °F 44.6 °F 26% 30.11 in 10.0 mi NW 8.1 mph - N/A   Clear
8:55 AM 82.4 °F 44.6 °F 26% 30.11 in 10.0 mi SW 8.1 mph - N/A   Clear
9:15 AM 84.2 °F 44.6 °F 25% 30.10 in 10.0 mi South 11.5 mph - N/A   Clear
9:35 AM 86.0 °F 46.4 °F 25% 30.10 in 10.0 mi SE 5.8 mph - N/A   Clear
9:55 AM 87.8 °F 46.4 °F 24% 30.10 in 10.0 mi SE 3.5 mph - N/A   Clear
10:15 AM 87.8 °F 46.4 °F 24% 30.10 in 10.0 mi NNE 3.5 mph - N/A   Clear
10:35 AM 89.6 °F 46.4 °F 22% 30.10 in 10.0 mi NNE 5.8 mph - N/A   Clear
10:55 AM 91.4 °F 46.4 °F 21% 30.09 in 10.0 mi East 5.8 mph - N/A   Clear
11:15 AM 91.4 °F 46.4 °F 21% 30.08 in 10.0 mi East 9.2 mph - N/A   Clear
11:35 AM - - N/A% 30.07 in - ESE 9.2 mph - N/A   Unknown
11:55 AM 93.2 °F 46.4 °F 20% 30.08 in 10.0 mi SE 4.6 mph - N/A   Clear
12:15 PM 93.2 °F 46.4 °F 20% 30.07 in 10.0 mi SSE 5.8 mph - N/A   Clear
12:35 PM 93.2 °F 46.4 °F 20% 30.07 in 10.0 mi SSE 6.9 mph - N/A   Clear
12:55 PM 95.0 °F 46.4 °F 19% 30.06 in 10.0 mi South 9.2 mph - N/A   Clear
1:15 PM 93.2 °F 46.4 °F 20% 30.05 in 10.0 mi SE 10.4 mph - N/A   Clear
1:55 PM 96.8 °F 44.6 °F 17% 30.04 in 10.0 mi SSE 6.9 mph - N/A   Clear
2:15 PM 96.8 °F 44.6 °F 17% 30.03 in 10.0 mi ESE 8.1 mph - N/A   Clear
2:35 PM 96.8 °F 42.8 °F 16% 30.02 in 10.0 mi SSE 10.4 mph - N/A   Clear
2:55 PM 98.6 °F 42.8 °F 15% 30.01 in 10.0 mi SE 11.5 mph - N/A   Clear
3:15 PM 98.6 °F 44.6 °F 16% 30.00 in 10.0 mi SSE 11.5 mph - N/A   Clear
3:35 PM 98.6 °F 44.6 °F 16% 29.99 in 10.0 mi SE 11.5 mph - N/A   Clear
3:55 PM 98.6 °F 42.8 °F 15% 29.98 in 10.0 mi ESE 10.4 mph - N/A   Clear
4:15 PM 98.6 °F 44.6 °F 16% 29.97 in 10.0 mi ESE 10.4 mph - N/A   Clear
4:35 PM 98.6 °F 44.6 °F 16% 29.96 in 10.0 mi SE 10.4 mph - N/A   Clear
4:55 PM 98.6 °F 44.6 °F 16% 29.95 in 10.0 mi SE 8.1 mph - N/A   Clear
5:15 PM 96.8 °F 42.8 °F 16% 29.94 in 10.0 mi East 6.9 mph - N/A   Clear
5:35 PM 96.8 °F 42.8 °F 16% 29.94 in 10.0 mi East 6.9 mph - N/A   Clear
5:55 PM 96.8 °F 42.8 °F 16% 29.94 in 10.0 mi NNW 8.1 mph - N/A   Clear
6:15 PM 93.2 °F 46.4 °F 20% 29.93 in 10.0 mi WNW 11.5 mph - N/A   Clear
6:35 PM 93.2 °F 48.2 °F 21% 29.92 in 10.0 mi WNW 11.5 mph - N/A   Clear
6:55 PM 93.2 °F 46.4 °F 20% 29.92 in 10.0 mi WNW 6.9 mph - N/A   Clear
7:15 PM 95.0 °F 46.4 °F 19% 29.92 in 10.0 mi WNW 6.9 mph - N/A   Clear
7:35 PM 95.0 °F 46.4 °F 19% 29.92 in 10.0 mi NNW 12.7 mph 23.0 mph N/A   Clear
7:55 PM 95.0 °F 46.4 °F 19% 29.93 in 10.0 mi NNW 3.5 mph - N/A   Clear
8:15 PM 95.0 °F 46.4 °F 19% 29.93 in 10.0 mi North 10.4 mph - N/A   Clear
8:35 PM 93.2 °F 46.4 °F 20% 29.94 in 10.0 mi North 13.8 mph 18.4 mph N/A   Clear
8:55 PM 93.2 °F 46.4 °F 20% 29.95 in 10.0 mi NNE 16.1 mph - N/A   Clear
9:15 PM 93.2 °F 46.4 °F 20% 29.95 in 10.0 mi North 13.8 mph - N/A   Clear
9:35 PM 91.4 °F 46.4 °F 21% 29.95 in 10.0 mi North 15.0 mph - N/A   Partly Cloudy
9:55 PM 91.4 °F 46.4 °F 21% 29.96 in 10.0 mi North 16.1 mph 26.5 mph N/A   Mostly Cloudy
10:15 PM 89.6 °F 46.4 °F 22% 29.99 in 10.0 mi NW 25.3 mph 31.1 mph N/A Thunderstorm Overcast
10:35 PM 84.2 °F 50.0 °F 30% 30.01 in 10.0 mi West 25.3 mph 33.4 mph N/A   Overcast
10:55 PM 82.4 °F 51.8 °F 35% 30.02 in 10.0 mi WNW 8.1 mph - N/A Thunderstorm Scattered Clouds
11:15 PM 82.4 °F 51.8 °F 35% 30.03 in 10.0 mi SSW 8.1 mph - N/A   Scattered Clouds
11:35 PM 82.4 °F 51.8 °F 35% 30.03 in 10.0 mi SSW 10.4 mph - N/A   Mostly Cloudy
11:55 PM 82.4 °F 51.8 °F 35% 30.03 in 10.0 mi SSW 5.8 mph - N/A   Scattered Clouds